Content
SEND FEEDBACK

Daily
Averages
Monthly
Summary
France

CAEN, FRANCE


Home > Europe > France
Elevation: 220 feet     Latitude: 49 11N     Longitude: 000 27W

WEATHER
 
SELECT A DAY
Number of Records: 215,135;   Date Range: 7/1/96 - 7/20/14
 
SHARE

PRINT THIS DATA

[ ← Previous Day ]
WEATHER ALMANAC - AUGUST 21, 2013
[ Next Day → ]
[ °C ]   °F
Weather ElementAverageHighLow
Temperature63.1 °F77 °F (2:30 pm)48.2 °F (7:30 am)
Dewpoint52.9 °F59 °F (6:30 pm)46.4 °F (7:30 am)
Humidity71.8 %100 % (4:00 am)31 % (2:00 pm)
Barometer30.24 in30.34 in (2:00 am)30.15 in (9:00 pm)
Wind Speed3.7 mph10.4 mph (3:30 pm)
Weather ElementAverage
Visibility7.5 mi
Wind DirectionENE (82.6 °)

Weather ElementTotal
Precipitation---
Heating Degree Days2.4 (Base 65)
Growing Degree Days12.6 (Base 50)
Averaged from 51 records on August 21, 2013
WEATHER CONDITIONS BREAKOUT
WIND DIRECTION BREAKOUT
WEATHER BY HOUR - AUGUST 21, 2013
[ °C ]   °F
Local TimeTemperatureDewpointHumidityBarometerVisibilityWind DirectionWind SpeedGust SpeedPrecipitationEventsConditions
12:30 AM55.4 °F51.8 °F88 %30.33 in6.2 miCalm
1:00 AM55.4 °F51.8 °F88 %30.33 in6.2 miCalm
1:30 AM55.4 °F51.8 °F88 %30.33 in6.2 miCalm
2:00 AM55.0 °F51.0 °F83 %30.34 in22.0 miNNW (330°)1.2 mphClear
2:00 AM55.4 °F51.8 °F88 %30.33 in6.2 miCalm
2:30 AM53.6 °F50.0 °F88 %30.33 in6.2 miNW (320°)2.3 mph
3:00 AM55.4 °F51.8 °F88 %30.30 in6.2 miCalm
3:30 AM51.8 °F48.2 °F88 %30.30 in6.2 miNW (310°)1.2 mph
4:00 AM51.8 °F51.8 °F100 %30.30 in6.2 miCalm
4:30 AM51.8 °F48.2 °F88 %30.30 in6.2 miVariable1.2 mph
5:00 AM50.0 °F48.2 °F94 %30.30 in6.2 miSW (220°)2.3 mph
5:30 AM50.0 °F48.2 °F94 %30.27 in6.2 miSSW (210°)3.5 mph
6:00 AM50.0 °F48.2 °F94 %30.27 in6.2 miSSW (200°)3.5 mph
6:30 AM50.0 °F48.2 °F94 %30.27 in6.2 miCalm
7:00 AM50.0 °F48.2 °F94 %30.27 in6.2 miCalm
7:30 AM48.2 °F46.4 °F93 %30.27 in6.2 miCalm
8:00 AM51.0 °F49.0 °F88 %30.30 in12.0 miCalmClear
8:00 AM50.0 °F48.2 °F94 %30.27 in6.2 miCalm
8:30 AM53.6 °F53.6 °F100 %30.27 in6.2 miCalm
9:00 AM55.4 °F51.8 °F88 %30.27 in6.2 miVariable1.2 mph
9:30 AM60.8 °F51.8 °F72 %30.27 in6.2 miCalm
10:00 AM64.4 °F51.8 °F64 %30.27 in6.2 miVariable2.3 mph
10:30 AM66.2 °F53.6 °F64 %30.27 in6.2 miVariable2.3 mph
11:00 AM68.0 °F53.6 °F60 %30.27 in6.2 miESE (120°)3.5 mph
11:30 AM68.0 °F53.6 °F60 %30.27 in6.2 miESE (120°)5.8 mph
12:00 PM71.6 °F53.6 °F53 %30.27 in6.2 miVariable3.5 mph
12:30 PM73.4 °F53.6 °F50 %30.24 in6.2 miVariable3.5 mph
1:00 PM75.2 °F51.8 °F44 %30.24 in6.2 miVariable3.5 mph
1:30 PM75.2 °F51.8 °F44 %30.24 in6.2 miSouth (170°)4.6 mph
2:00 PM76.0 °F51.0 °F31 %30.24 in25.0 miESE (110°)4.6 mphClear
2:00 PM75.2 °F51.8 °F44 %30.24 in6.2 miESE (120°)4.6 mph
2:30 PM77.0 °F50.0 °F39 %30.24 in6.2 miWest (270°)3.5 mph
3:00 PM77.0 °F53.6 °F44 %30.21 in6.2 miVariable3.5 mph
3:30 PM75.2 °F55.4 °F50 %30.21 in6.2 miNNE (30°)10.4 mph
4:00 PM73.4 °F57.2 °F57 %30.21 in6.2 miNNE (30°)9.2 mph
4:30 PM75.2 °F55.4 °F50 %30.21 in6.2 miNE (50°)8.1 mph
5:00 PM73.4 °F57.2 °F57 %30.21 in6.2 miNE (40°)9.2 mph
5:30 PM75.2 °F55.4 °F50 %30.18 in6.2 miNNE (30°)8.1 mph
6:00 PM73.4 °F57.2 °F57 %30.18 in6.2 miNNE (30°)8.1 mph
6:30 PM73.4 °F59.0 °F61 %30.18 in6.2 miNNE (30°)8.1 mph
7:00 PM71.6 °F57.2 °F60 %30.18 in6.2 miNorth (10°)9.2 mph
7:30 PM71.6 °F57.2 °F60 %30.18 in6.2 miNorth (360°)8.1 mph
8:00 PM69.0 °F56.0 °F54 %30.18 in31.0 miNorth9.2 mphClear
8:00 PM69.8 °F57.2 °F64 %30.18 in6.2 miNorth (360°)9.2 mph
8:30 PM66.2 °F57.2 °F73 %30.18 in6.2 miNorth (10°)6.9 mph
9:00 PM64.4 °F57.2 °F77 %30.15 in6.2 miNNE (20°)4.6 mph
9:30 PM64.4 °F57.2 °F77 %30.18 in6.2 miNorth (10°)3.5 mph
10:00 PM64.4 °F57.2 °F77 %30.18 in6.2 miNorth (10°)4.6 mph
10:30 PM62.6 °F55.4 °F77 %30.15 in6.2 miVariable2.3 mph
11:00 PM60.8 °F55.4 °F82 %30.15 in6.2 miNW (320°)3.5 mph
11:30 PM59.0 °F55.4 °F88 %30.15 in6.2 miWNW (290°)4.6 mph
Hourly data recorded from LFRK, located miles away from Caen, France







STORIES FROM OUR PARTNERS